AUA26 KMCO-LOWW

Flight info

Callsign AUA26
Flight time N/A
Altitude 33000
Route MZULO3 LENDS COACH EAAGL HAAYY AZEZU KN57E LACKS JOBOC 4160N 4250N 4340N 4330N 4320N MUDOS ROXER NOLSA MARIO SINDO PIVUS DIBER NETUP STP RAPED PIGOS EKSID NOSTA LUKIM MALUG ARALD ABTAN
Aircraft A343/H-SDE2E3FGHIJ4J5M1RWXY/LB1D1

Departure

Time 2026-04-25 12:13
Airport Orlando International Airport (KMCO)

Arrival

Time N/A
Airport Vienna International Airport (LOWW)
Time Latitude Longitude Altitude Speed Heading
2026-04-25 10:42 28.43596 -81.31194 106 ft 0 kts 240°
2026-04-25 10:43 28.43596 -81.31195 106 ft 0 kts 241°
2026-04-25 10:46 28.43596 -81.31194 105 ft 0 kts 242°
2026-04-25 11:42 28.43603 -81.31175 105 ft 3 kts 249°
2026-04-25 11:42 28.43609 -81.31152 102 ft 4 kts 279°
2026-04-25 11:42 28.43597 -81.31134 104 ft 4 kts 342°
2026-04-25 11:42 28.43580 -81.31128 104 ft 0 kts 343°
2026-04-25 11:51 28.43581 -81.31128 104 ft 0 kts 343°
2026-04-25 11:51 28.43585 -81.31130 104 ft 6 kts 342°
2026-04-25 11:51 28.43588 -81.31131 105 ft 0 kts 342°
2026-04-25 11:52 28.43620 -81.31147 104 ft 9 kts 333°
2026-04-25 11:52 28.43693 -81.31198 105 ft 15 kts 327°
2026-04-25 11:53 28.43774 -81.31292 105 ft 19 kts 295°
2026-04-25 11:53 28.43816 -81.31424 106 ft 19 kts 288°
2026-04-25 11:53 28.43836 -81.31522 106 ft 20 kts 279°
2026-04-25 11:53 28.43849 -81.31638 108 ft 0 kts 276°
2026-04-25 11:54 28.43851 -81.31652 108 ft 4 kts 274°
2026-04-25 11:54 28.43849 -81.31715 109 ft 12 kts 268°
2026-04-25 11:54 28.43864 -81.31816 109 ft 0 kts 311°
2026-04-25 11:56 28.43870 -81.31822 109 ft 6 kts 317°
2026-04-25 11:56 28.43878 -81.31830 109 ft 0 kts 321°
2026-04-25 11:57 28.43911 -81.31862 110 ft 14 kts 316°
2026-04-25 11:57 28.43948 -81.31920 111 ft 8 kts 299°
2026-04-25 11:57 28.43909 -81.31997 111 ft 17 kts 193°
2026-04-25 11:58 28.43779 -81.32003 110 ft 21 kts 179°
2026-04-25 11:58 28.43625 -81.31999 110 ft 24 kts 179°
2026-04-25 11:58 28.43463 -81.31997 107 ft 15 kts 179°
2026-04-25 11:58 28.43349 -81.31997 106 ft 20 kts 180°
2026-04-25 11:59 28.43282 -81.31998 105 ft 2 kts 179°
2026-04-25 11:59 28.43269 -81.31997 106 ft 0 kts 179°
2026-04-25 12:00 28.43260 -81.31997 104 ft 0 kts 179°
2026-04-25 12:01 28.43251 -81.31997 107 ft 8 kts 179°
2026-04-25 12:01 28.43150 -81.31996 105 ft 19 kts 180°
2026-04-25 12:01 28.43041 -81.31913 106 ft 22 kts 123°
2026-04-25 12:01 28.42913 -81.31831 108 ft 24 kts 179°
2026-04-25 12:02 28.42540 -81.31833 110 ft 31 kts 180°
2026-04-25 12:02 28.42382 -81.31820 109 ft 22 kts 154°
2026-04-25 12:02 28.42345 -81.31651 107 ft 26 kts 87°
2026-04-25 12:03 28.42349 -81.31447 105 ft 18 kts 89°
2026-04-25 12:03 28.42352 -81.31302 104 ft 22 kts 90°
2026-04-25 12:03 28.42331 -81.31105 107 ft 27 kts 99°
2026-04-25 12:03 28.42321 -81.30887 104 ft 29 kts 85°
2026-04-25 12:04 28.42337 -81.30665 110 ft 28 kts 85°
2026-04-25 12:04 28.42345 -81.30546 110 ft 8 kts 85°
2026-04-25 12:04 28.42347 -81.30518 110 ft 0 kts 85°
2026-04-25 12:05 28.42347 -81.30517 110 ft 2 kts 85°
2026-04-25 12:05 28.42352 -81.30457 107 ft 15 kts 86°
2026-04-25 12:05 28.42359 -81.30305 107 ft 8 kts 88°
2026-04-25 12:05 28.42359 -81.30230 100 ft 16 kts 89°
2026-04-25 12:06 28.42362 -81.30069 108 ft 24 kts 89°
2026-04-25 12:06 28.42364 -81.29885 107 ft 22 kts 87°
2026-04-25 12:06 28.42480 -81.29793 106 ft 24 kts
2026-04-25 12:06 28.42666 -81.29794 106 ft 29 kts
2026-04-25 12:07 28.42877 -81.29798 107 ft 31 kts 358°
2026-04-25 12:07 28.43109 -81.29800 107 ft 35 kts
2026-04-25 12:07 28.43245 -81.29801 107 ft 0 kts 358°
2026-04-25 12:07 28.43251 -81.29801 107 ft 0 kts 358°
2026-04-25 12:09 28.43289 -81.29803 107 ft 12 kts 358°
2026-04-25 12:09 28.43427 -81.29806 107 ft 27 kts 359°
2026-04-25 12:10 28.43529 -81.29781 107 ft 19 kts 41°
2026-04-25 12:10 28.43547 -81.29727 107 ft 0 kts 82°
2026-04-25 12:11 28.43550 -81.29691 107 ft 10 kts 86°
2026-04-25 12:11 28.43522 -81.29614 108 ft 12 kts 140°
2026-04-25 12:11 28.43445 -81.29587 109 ft 0 kts 173°
2026-04-25 12:11 28.43431 -81.29585 110 ft 13 kts 173°
2026-04-25 12:12 28.43164 -81.29584 109 ft 64 kts 179°
2026-04-25 12:12 28.42801 -81.29585 107 ft 94 kts 179°
2026-04-25 12:12 28.41675 -81.29579 109 ft 144 kts 180°
2026-04-25 12:12 28.40556 -81.29546 106 ft 179 kts 173°
2026-04-25 12:13 28.39289 -81.29439 578 ft 187 kts 174°
2026-04-25 12:13 28.38006 -81.29192 1216 ft 189 kts 162°
2026-04-25 12:13 28.36766 -81.28404 1214 ft 225 kts 140°
2026-04-25 12:13 28.35466 -81.27234 1419 ft 243 kts 144°
2026-04-25 12:14 28.34022 -81.26149 1858 ft 253 kts 141°
2026-04-25 12:14 28.32788 -81.24666 2349 ft 263 kts 130°
2026-04-25 12:14 28.31649 -81.23036 2878 ft 270 kts 129°
2026-04-25 12:14 28.30386 -81.21420 3474 ft 275 kts 136°
2026-04-25 12:15 28.28967 -81.19950 4100 ft 277 kts 137°
2026-04-25 12:15 28.27658 -81.18344 4726 ft 279 kts 129°
2026-04-25 12:15 28.26683 -81.16440 5308 ft 281 kts 110°
2026-04-25 12:15 28.26423 -81.14267 5918 ft 281 kts 83°
2026-04-25 12:16 28.26922 -81.12117 6590 ft 280 kts 70°
2026-04-25 12:16 28.27599 -81.10060 7145 ft 284 kts 69°
2026-04-25 12:16 28.28313 -81.07955 7677 ft 288 kts 69°
2026-04-25 12:16 28.29031 -81.05817 8219 ft 292 kts 69°
2026-04-25 12:17 28.29752 -81.03643 8765 ft 296 kts 69°
2026-04-25 12:17 28.30473 -81.01445 9296 ft 300 kts 69°
2026-04-25 12:17 28.31200 -80.99217 9833 ft 303 kts 69°
2026-04-25 12:17 28.31938 -80.96944 10253 ft 310 kts 69°
2026-04-25 12:18 28.32698 -80.94605 10487 ft 323 kts 68°
2026-04-25 12:18 28.33665 -80.92263 10697 ft 333 kts 53°
2026-04-25 12:18 28.35230 -80.90288 10929 ft 342 kts 40°
2026-04-25 12:18 28.37067 -80.88507 11160 ft 353 kts 38°
2026-04-25 12:19 28.40323 -80.85507 11539 ft 371 kts 37°
2026-04-25 12:19 28.43051 -80.83005 12034 ft 380 kts 37°
2026-04-25 12:19 28.45117 -80.81106 12460 ft 384 kts 37°
2026-04-25 12:20 28.47202 -80.79190 12901 ft 388 kts 37°
2026-04-25 12:20 28.49304 -80.77256 13352 ft 391 kts 37°
2026-04-25 12:20 28.51427 -80.75296 13815 ft 394 kts 38°
2026-04-25 12:20 28.53386 -80.73095 14202 ft 400 kts 50°
2026-04-25 12:21 28.54860 -80.70452 14569 ft 404 kts 61°
2026-04-25 12:21 28.56100 -80.67563 14986 ft 408 kts 63°
2026-04-25 12:21 28.57291 -80.64614 15414 ft 411 kts 63°
2026-04-25 12:21 28.58483 -80.61654 15812 ft 414 kts 63°
2026-04-25 12:22 28.59693 -80.58661 16234 ft 417 kts 63°
2026-04-25 12:22 28.60914 -80.55660 16650 ft 420 kts 63°
2026-04-25 12:22 28.62148 -80.52633 17079 ft 423 kts 63°
2026-04-25 12:22 28.63394 -80.49585 17465 ft 427 kts 63°
2026-04-25 12:23 28.64653 -80.46507 17886 ft 430 kts 62°
2026-04-25 12:23 28.65921 -80.43405 18283 ft 433 kts 62°
2026-04-25 12:23 28.67195 -80.40288 18643 ft 436 kts 62°
2026-04-25 12:23 28.68478 -80.37149 19023 ft 437 kts 62°
2026-04-25 12:24 28.69764 -80.34000 19406 ft 440 kts 62°
2026-04-25 12:24 28.71055 -80.30835 19792 ft 442 kts 62°
2026-04-25 12:24 28.72352 -80.27654 20165 ft 444 kts 62°
2026-04-25 12:24 28.73640 -80.24493 20524 ft 446 kts 63°
2026-04-25 12:25 28.74947 -80.21282 20883 ft 448 kts 63°
2026-04-25 12:25 28.76262 -80.18050 21253 ft 450 kts 63°
2026-04-25 12:25 28.77586 -80.14793 21627 ft 452 kts 63°
2026-04-25 12:25 28.78908 -80.11538 21976 ft 454 kts 63°
2026-04-25 12:26 28.80236 -80.08267 22339 ft 456 kts 63°
2026-04-25 12:26 28.81567 -80.04984 22676 ft 458 kts 63°
2026-04-25 12:26 28.82907 -80.01677 23028 ft 460 kts 63°
2026-04-25 12:26 28.84252 -79.98356 23368 ft 462 kts 62°
2026-04-25 12:27 28.85613 -79.95030 23663 ft 463 kts 62°
2026-04-25 12:27 28.86978 -79.91697 23955 ft 465 kts 62°
2026-04-25 12:27 28.88341 -79.88346 24243 ft 466 kts 62°
2026-04-25 12:27 28.89702 -79.84977 24541 ft 468 kts 63°
2026-04-25 12:28 28.91063 -79.81598 24827 ft 469 kts 63°
2026-04-25 12:28 28.92426 -79.78203 25107 ft 471 kts 63°
2026-04-25 12:28 28.93781 -79.74840 25350 ft 473 kts 63°
2026-04-25 12:28 28.95154 -79.71430 25612 ft 474 kts 63°
2026-04-25 12:29 28.96530 -79.68005 25899 ft 475 kts 63°
2026-04-25 12:29 28.97907 -79.64567 26169 ft 476 kts 63°
2026-04-25 12:29 28.99288 -79.61114 26432 ft 478 kts 63°
2026-04-25 12:29 29.00669 -79.57654 26674 ft 479 kts 63°
2026-04-25 12:30 29.02055 -79.54181 26913 ft 480 kts 63°
2026-04-25 12:30 29.03445 -79.50695 27159 ft 482 kts 63°
2026-04-25 12:30 29.04837 -79.47203 27397 ft 483 kts 63°
2026-04-25 12:30 29.06230 -79.43703 27634 ft 484 kts 63°
2026-04-25 12:31 29.07627 -79.40192 27867 ft 486 kts 64°
2026-04-25 12:31 29.09029 -79.36667 28052 ft 488 kts 64°
2026-04-25 12:31 29.10434 -79.33131 28291 ft 489 kts 64°
2026-04-25 12:31 29.11846 -79.29575 28510 ft 490 kts 63°
2026-04-25 12:32 29.13237 -79.26068 28750 ft 491 kts 63°
2026-04-25 12:32 29.14647 -79.22506 29050 ft 490 kts 63°
2026-04-25 12:32 29.16049 -79.18965 29372 ft 489 kts 63°
2026-04-25 12:32 29.17448 -79.15430 29671 ft 488 kts 63°
2026-04-25 12:33 29.18848 -79.11891 29961 ft 487 kts 63°
2026-04-25 12:33 29.20243 -79.08363 30231 ft 486 kts 63°
2026-04-25 12:33 29.21634 -79.04841 30461 ft 485 kts 64°
2026-04-25 12:33 29.23030 -79.01306 30570 ft 487 kts 64°
2026-04-25 12:34 29.24424 -78.97770 30759 ft 488 kts 64°
2026-04-25 12:34 29.25819 -78.94231 30981 ft 487 kts 64°
2026-04-25 12:34 29.27207 -78.90704 31217 ft 486 kts 64°
2026-04-25 12:35 29.29966 -78.83685 31626 ft 485 kts 64°
2026-04-25 12:35 29.31348 -78.80165 31822 ft 485 kts 64°
2026-04-25 12:35 29.32730 -78.76643 32013 ft 484 kts 64°
2026-04-25 12:35 29.34107 -78.73129 32208 ft 484 kts 64°
2026-04-25 12:36 29.35487 -78.69603 32398 ft 483 kts 64°
2026-04-25 12:36 29.36863 -78.66085 32613 ft 483 kts 64°
2026-04-25 12:36 29.38222 -78.62566 32737 ft 483 kts 65°
2026-04-25 12:36 29.39581 -78.59039 32915 ft 483 kts 65°
2026-04-25 12:37 29.41017 -78.55551 32990 ft 480 kts 60°
2026-04-25 12:37 29.44746 -78.49367 32990 ft 468 kts 47°
2026-04-25 12:38 29.49580 -78.44536 32990 ft 463 kts 28°
2026-04-25 12:38 29.55514 -78.41809 32990 ft 460 kts 14°
2026-04-25 12:39 29.61748 -78.40120 32995 ft 460 kts 11°
2026-04-25 12:39 29.68026 -78.38575 32986 ft 461 kts 11°
2026-04-25 12:40 29.74286 -78.36953 32987 ft 461 kts 12°
2026-04-25 12:40 29.80525 -78.35261 32988 ft 461 kts 12°
2026-04-25 12:41 29.85723 -78.33825 32993 ft 461 kts 12°
2026-04-25 12:41 29.92983 -78.31812 32988 ft 461 kts 12°
2026-04-25 12:42 29.98178 -78.30371 32989 ft 461 kts 12°
2026-04-25 12:42 30.04456 -78.28631 32986 ft 461 kts 12°
2026-04-25 12:43 30.10688 -78.26903 32984 ft 461 kts 12°
2026-04-25 12:43 30.20047 -78.24304 32986 ft 461 kts 12°
2026-04-25 12:44 30.26251 -78.22579 32983 ft 461 kts 12°
2026-04-25 12:45 30.35614 -78.19970 32983 ft 461 kts 12°
2026-04-25 12:45 30.44974 -78.17357 32989 ft 461 kts 12°
2026-04-25 12:46 30.51216 -78.15612 32982 ft 462 kts 12°
2026-04-25 12:46 30.57463 -78.13863 32982 ft 462 kts 12°
2026-04-25 12:47 30.63684 -78.12119 32986 ft 462 kts 12°
2026-04-25 12:47 30.69940 -78.10363 32985 ft 462 kts 12°
2026-04-25 12:48 30.76194 -78.08606 32979 ft 462 kts 12°
2026-04-25 12:48 30.82435 -78.06850 32981 ft 462 kts 12°
2026-04-25 12:49 30.88684 -78.05089 32980 ft 462 kts 12°
2026-04-25 12:49 30.94944 -78.03322 32978 ft 462 kts 12°
2026-04-25 12:50 31.01200 -78.01555 32983 ft 462 kts 12°
2026-04-25 12:50 31.07374 -77.99623 32987 ft 463 kts 19°
2026-04-25 12:51 31.13084 -77.96127 32987 ft 465 kts 31°
2026-04-25 12:51 31.18528 -77.92032 32973 ft 467 kts 32°
2026-04-25 12:52 31.23984 -77.87912 32983 ft 467 kts 31°
2026-04-25 12:52 31.29486 -77.83863 32969 ft 466 kts 31°
2026-04-25 12:53 31.34962 -77.79894 32979 ft 466 kts 31°
2026-04-25 12:53 31.40483 -77.75902 32986 ft 466 kts 31°
2026-04-25 12:54 31.45991 -77.71912 32977 ft 466 kts 31°
2026-04-25 12:54 31.51514 -77.67901 32976 ft 465 kts 31°
2026-04-25 12:55 31.56082 -77.64577 32977 ft 464 kts 31°
2026-04-25 12:55 31.62492 -77.59907 32970 ft 464 kts 31°
2026-04-25 12:56 31.67949 -77.55910 32976 ft 465 kts 31°
2026-04-25 12:56 31.73444 -77.51884 32977 ft 465 kts 31°
2026-04-25 12:57 31.78939 -77.47863 32976 ft 465 kts 31°
2026-04-25 12:57 31.84417 -77.43854 32975 ft 464 kts 31°
2026-04-25 12:58 31.89912 -77.39828 32972 ft 464 kts 31°
2026-04-25 12:58 31.95394 -77.35803 32974 ft 464 kts 31°
2026-04-25 12:59 32.00875 -77.31772 32975 ft 464 kts 31°
2026-04-25 12:59 32.06343 -77.27745 32971 ft 463 kts 31°
2026-04-25 13:00 32.10876 -77.24402 32971 ft 463 kts 32°
2026-04-25 13:00 32.17264 -77.19684 32973 ft 464 kts 32°
2026-04-25 13:01 32.22715 -77.15653 32970 ft 465 kts 31°
2026-04-25 13:01 32.28223 -77.11641 32969 ft 464 kts 31°
2026-04-25 13:02 32.33735 -77.07659 32977 ft 464 kts 31°
2026-04-25 13:02 32.39204 -77.03703 32969 ft 464 kts 31°
2026-04-25 13:03 32.44707 -76.99707 32969 ft 464 kts 31°
2026-04-25 13:03 32.50197 -76.95711 32969 ft 463 kts 31°
2026-04-25 13:04 32.55688 -76.91706 32970 ft 463 kts 31°
2026-04-25 13:04 32.61178 -76.87696 32969 ft 463 kts 31°
2026-04-25 13:05 32.66670 -76.83680 32969 ft 464 kts 31°
2026-04-25 13:05 32.72170 -76.79653 32966 ft 465 kts 31°
2026-04-25 13:06 32.77678 -76.75613 32965 ft 465 kts 31°
2026-04-25 13:06 32.83177 -76.71573 32968 ft 465 kts 31°
2026-04-25 13:07 32.88648 -76.67548 32969 ft 465 kts 31°
2026-04-25 13:07 32.94146 -76.63497 32966 ft 465 kts 31°
2026-04-25 13:08 32.99643 -76.59442 32965 ft 464 kts 31°
2026-04-25 13:08 33.05123 -76.55394 32969 ft 464 kts 32°
2026-04-25 13:09 33.10608 -76.51336 32968 ft 463 kts 32°
2026-04-25 13:09 33.16093 -76.47272 32966 ft 464 kts 31°
2026-04-25 13:10 33.21586 -76.43193 32968 ft 465 kts 32°
2026-04-25 13:10 33.27039 -76.39140 32960 ft 464 kts 32°
2026-04-25 13:11 33.32522 -76.35060 32963 ft 464 kts 32°
2026-04-25 13:11 33.38005 -76.30973 32962 ft 464 kts 32°
2026-04-25 13:12 33.43483 -76.26883 32965 ft 466 kts 32°
2026-04-25 13:12 33.48092 -76.23436 32965 ft 473 kts 32°
2026-04-25 13:13 33.54656 -76.18515 32958 ft 476 kts 32°
2026-04-25 13:13 33.60258 -76.14309 32962 ft 475 kts 32°
2026-04-25 13:14 33.65832 -76.10119 32957 ft 475 kts 32°
2026-04-25 13:14 33.71440 -76.05897 32956 ft 475 kts 32°
2026-04-25 13:15 33.77033 -76.01676 32953 ft 473 kts 32°
2026-04-25 13:15 33.82611 -75.97462 32952 ft 473 kts 32°
2026-04-25 13:16 33.88193 -75.93242 32954 ft 473 kts 32°
2026-04-25 13:16 33.93767 -75.89020 32954 ft 473 kts 31°
2026-04-25 13:17 33.99275 -75.84839 32950 ft 470 kts 31°
2026-04-25 13:17 34.04810 -75.80631 32950 ft 469 kts 31°
2026-04-25 13:18 34.10335 -75.76427 32948 ft 470 kts 31°
2026-04-25 13:18 34.15876 -75.72208 32951 ft 470 kts 31°
2026-04-25 13:19 34.21406 -75.67986 32939 ft 471 kts 32°
2026-04-25 13:19 34.25077 -75.65157 32938 ft 471 kts 32°
2026-04-25 13:20 34.32450 -75.59498 32941 ft 471 kts 31°
2026-04-25 13:20 34.37987 -75.55265 32939 ft 471 kts 31°
2026-04-25 13:21 34.43537 -75.51020 32940 ft 472 kts 31°
2026-04-25 13:21 34.49092 -75.46761 32933 ft 471 kts 31°
2026-04-25 13:22 34.54630 -75.42506 32941 ft 472 kts 31°
2026-04-25 13:23 34.62943 -75.36095 32933 ft 472 kts 30°
2026-04-25 13:23 34.68493 -75.31802 32929 ft 472 kts 30°
2026-04-25 13:24 34.74038 -75.27506 32926 ft 472 kts 30°
2026-04-25 13:24 34.79548 -75.23233 32925 ft 473 kts 30°
2026-04-25 13:25 34.85093 -75.18927 32929 ft 472 kts 30°
2026-04-25 13:25 34.90641 -75.14610 32923 ft 472 kts 30°
2026-04-25 13:26 34.96170 -75.10300 32925 ft 472 kts 30°
2026-04-25 13:26 35.01713 -75.05997 32931 ft 472 kts 29°
2026-04-25 13:27 35.07271 -75.01677 32925 ft 473 kts 30°
2026-04-25 13:27 35.12815 -74.97338 32919 ft 473 kts 30°
2026-04-25 13:28 35.17416 -74.93719 32921 ft 473 kts 30°
2026-04-25 13:28 35.22958 -74.89354 32927 ft 473 kts 30°
2026-04-25 13:29 35.28492 -74.84985 32924 ft 473 kts 30°
2026-04-25 13:29 35.33988 -74.80533 32921 ft 474 kts 33°
2026-04-25 13:30 35.41907 -74.73228 32926 ft 475 kts 35°
2026-04-25 13:31 35.49774 -74.65838 32928 ft 475 kts 35°
2026-04-25 13:31 35.55010 -74.60978 32921 ft 475 kts 34°
2026-04-25 13:32 35.60287 -74.56095 32920 ft 475 kts 34°
2026-04-25 13:32 35.65567 -74.51205 32920 ft 475 kts 34°
2026-04-25 13:33 35.70837 -74.46318 32927 ft 475 kts 34°
2026-04-25 13:33 35.76111 -74.41417 32918 ft 474 kts 34°
2026-04-25 13:34 35.81375 -74.36509 32922 ft 474 kts 34°
2026-04-25 13:34 35.86645 -74.31590 32926 ft 474 kts 34°
2026-04-25 13:35 35.91893 -74.26684 32924 ft 474 kts 34°
2026-04-25 13:35 35.97145 -74.21771 32912 ft 474 kts 34°
2026-04-25 13:36 36.02361 -74.16879 32935 ft 473 kts 34°
2026-04-25 13:36 36.07608 -74.11953 32915 ft 473 kts 33°
2026-04-25 13:37 36.12856 -74.07016 32942 ft 473 kts 34°
2026-04-25 13:37 36.18072 -74.02100 32929 ft 473 kts 33°
2026-04-25 13:38 36.23335 -73.97125 32926 ft 473 kts 33°
2026-04-25 13:38 36.28518 -73.92223 32936 ft 472 kts 33°
2026-04-25 13:39 36.33737 -73.87282 32935 ft 472 kts 33°
2026-04-25 13:39 36.38966 -73.82324 32938 ft 472 kts 33°
2026-04-25 13:40 36.44175 -73.77364 32947 ft 472 kts 33°
2026-04-25 13:40 36.49403 -73.72391 32950 ft 472 kts 33°
2026-04-25 13:41 36.54623 -73.67423 32950 ft 472 kts 33°
2026-04-25 13:41 36.59841 -73.62440 32959 ft 472 kts 33°
2026-04-25 13:42 36.65017 -73.57478 32959 ft 472 kts 33°
2026-04-25 13:42 36.70226 -73.52477 32956 ft 473 kts 33°
2026-04-25 13:43 36.75436 -73.47469 32971 ft 473 kts 33°
2026-04-25 13:43 36.80640 -73.42460 32975 ft 473 kts 32°
2026-04-25 13:44 36.85856 -73.37429 32972 ft 474 kts 32°
2026-04-25 13:44 36.91081 -73.32384 32980 ft 473 kts 32°
2026-04-25 13:45 36.96189 -73.27439 32980 ft 463 kts 32°
2026-04-25 13:45 37.01268 -73.22515 32995 ft 461 kts 32°
2026-04-25 13:46 37.06342 -73.17592 32990 ft 462 kts 32°
2026-04-25 13:46 37.11431 -73.12645 32994 ft 462 kts 32°
2026-04-25 13:47 37.16508 -73.07700 33001 ft 462 kts 32°
2026-04-25 13:47 37.21595 -73.02739 33002 ft 462 kts 32°
2026-04-25 13:48 37.26673 -72.97778 33006 ft 462 kts 32°
2026-04-25 13:48 37.31749 -72.92811 33008 ft 462 kts 32°
2026-04-25 13:49 37.36789 -72.87866 33008 ft 462 kts 32°
2026-04-25 13:49 37.41853 -72.82887 33011 ft 462 kts 31°
2026-04-25 13:50 37.46918 -72.77895 33013 ft 462 kts 32°
2026-04-25 13:50 37.51977 -72.72902 33019 ft 462 kts 32°
2026-04-25 13:51 37.57045 -72.67895 33026 ft 462 kts 31°
2026-04-25 13:51 37.62104 -72.62889 33034 ft 462 kts 31°
2026-04-25 13:52 37.67158 -72.57877 33033 ft 462 kts 31°
2026-04-25 13:52 37.72209 -72.52856 33040 ft 461 kts 31°
2026-04-25 13:53 37.77249 -72.47848 33043 ft 461 kts 31°
2026-04-25 13:53 37.82267 -72.42856 33039 ft 461 kts 31°
2026-04-25 13:54 37.87248 -72.37703 33045 ft 467 kts 36°
2026-04-25 13:54 37.91819 -72.31814 33063 ft 470 kts 39°
2026-04-25 13:55 37.96275 -72.25638 33048 ft 472 kts 41°
2026-04-25 13:55 38.00612 -72.19464 33057 ft 471 kts 40°
2026-04-25 13:56 38.04958 -72.13245 33060 ft 471 kts 40°
2026-04-25 13:56 38.09315 -72.07023 33062 ft 471 kts 40°
2026-04-25 13:57 38.13671 -72.00809 33062 ft 471 kts 40°
2026-04-25 13:57 38.18031 -71.94585 33086 ft 472 kts 40°
2026-04-25 13:58 38.22441 -71.88285 33072 ft 481 kts 40°
2026-04-25 13:58 38.26914 -71.81882 33075 ft 486 kts 40°
2026-04-25 13:59 38.31380 -71.75457 33074 ft 483 kts 40°
2026-04-25 13:59 38.35806 -71.69079 33101 ft 483 kts 40°
2026-04-25 14:00 38.39536 -71.63698 33079 ft 484 kts 40°
2026-04-25 14:00 38.44716 -71.56207 33098 ft 485 kts 40°
2026-04-25 14:01 38.49176 -71.49742 33093 ft 484 kts 40°
2026-04-25 14:01 38.53622 -71.43286 33112 ft 484 kts 40°
2026-04-25 14:02 38.58064 -71.36823 33093 ft 484 kts 40°
2026-04-25 14:02 38.62474 -71.30394 33097 ft 484 kts 40°
2026-04-25 14:03 38.66911 -71.23916 33097 ft 484 kts 40°
2026-04-25 14:03 38.71341 -71.17432 33135 ft 484 kts 40°
2026-04-25 14:04 38.75775 -71.10933 33107 ft 484 kts 39°
2026-04-25 14:04 38.80198 -71.04437 33108 ft 484 kts 40°
2026-04-25 14:05 38.84621 -70.97927 33112 ft 484 kts 40°
2026-04-25 14:05 38.89041 -70.91409 33136 ft 484 kts 39°
2026-04-25 14:06 38.93449 -70.84893 33116 ft 483 kts 39°
2026-04-25 14:06 38.97852 -70.78365 33116 ft 483 kts 39°
2026-04-25 14:07 39.02248 -70.71839 33115 ft 483 kts 39°
2026-04-25 14:07 39.06616 -70.65346 33119 ft 483 kts 39°
2026-04-25 14:08 39.11004 -70.58808 33122 ft 483 kts 39°
2026-04-25 14:08 39.15393 -70.52257 33132 ft 483 kts 39°
2026-04-25 14:09 39.19795 -70.45667 33125 ft 481 kts 39°
2026-04-25 14:09 39.24135 -70.39156 33133 ft 481 kts 39°
2026-04-25 14:10 39.28496 -70.32601 33125 ft 481 kts 39°
2026-04-25 14:10 39.32853 -70.26038 33127 ft 481 kts 39°
2026-04-25 14:11 39.37206 -70.19470 33156 ft 481 kts 39°
2026-04-25 14:11 39.41548 -70.12902 33138 ft 478 kts 39°
2026-04-25 14:12 39.45842 -70.06383 33128 ft 474 kts 39°
2026-04-25 14:12 39.49854 -69.99520 33132 ft 489 kts 50°
2026-04-25 14:12 39.51349 -69.95490 33130 ft 500 kts 58°
2026-04-25 14:13 39.52619 -69.91267 33125 ft 504 kts 60°
2026-04-25 14:13 39.54950 -69.82661 33135 ft 506 kts 61°
2026-04-25 14:14 39.57233 -69.74141 33136 ft 500 kts 60°
2026-04-25 14:14 39.59583 -69.65664 33133 ft 498 kts 59°
2026-04-25 14:15 39.61568 -69.58651 33137 ft 498 kts 59°
2026-04-25 14:15 39.63960 -69.50223 33137 ft 498 kts 59°
2026-04-25 14:16 39.66340 -69.41787 33128 ft 497 kts 59°
2026-04-25 14:16 39.68712 -69.33343 33141 ft 497 kts 59°
2026-04-25 14:17 39.71078 -69.24889 33127 ft 498 kts 59°
2026-04-25 14:17 39.73434 -69.16445 33130 ft 498 kts 59°
2026-04-25 14:18 39.75793 -69.07959 33119 ft 498 kts 59°
2026-04-25 14:18 39.78143 -68.99481 33122 ft 499 kts 59°
2026-04-25 14:19 39.80487 -68.90993 33120 ft 499 kts 59°
2026-04-25 14:19 39.82824 -68.82502 33131 ft 499 kts 58°
2026-04-25 14:20 39.85150 -68.74014 33107 ft 498 kts 58°
2026-04-25 14:20 39.87464 -68.65564 33106 ft 497 kts 58°
2026-04-25 14:21 39.89781 -68.57086 33121 ft 497 kts 58°
2026-04-25 14:21 39.92088 -68.48599 33116 ft 496 kts 58°
2026-04-25 14:22 39.94382 -68.40109 33114 ft 495 kts 58°
2026-04-25 14:22 39.96651 -68.31666 33108 ft 493 kts 58°
2026-04-25 14:23 39.98918 -68.23222 33107 ft 494 kts 58°
2026-04-25 14:23 39.99856 -68.18845 33130 ft 506 kts 66°
2026-04-25 14:23 40.00541 -68.14312 33107 ft 510 kts 67°
2026-04-25 14:24 40.01629 -68.05174 33106 ft 515 kts 70°
2026-04-25 14:24 40.02555 -67.95903 33104 ft 516 kts 70°
2026-04-25 14:25 40.03449 -67.86608 33105 ft 516 kts 70°
2026-04-25 14:25 40.04348 -67.77311 33102 ft 516 kts 70°
2026-04-25 14:26 40.05254 -67.68024 33101 ft 516 kts 70°
2026-04-25 14:26 40.06155 -67.58796 33102 ft 516 kts 70°
2026-04-25 14:27 40.07055 -67.49508 33098 ft 516 kts 70°
2026-04-25 14:27 40.07950 -67.40187 33093 ft 517 kts 70°
2026-04-25 14:28 40.08837 -67.30865 33095 ft 517 kts 70°
2026-04-25 14:28 40.09716 -67.21541 33138 ft 517 kts 70°
2026-04-25 14:29 40.10591 -67.12220 33085 ft 517 kts 71°
2026-04-25 14:29 40.11462 -67.02879 33127 ft 517 kts 71°
2026-04-25 14:29 40.11897 -66.98222 33316 ft 516 kts 70°
2026-04-25 14:30 40.12453 -66.93624 33546 ft 509 kts 67°
2026-04-25 14:30 40.13860 -66.84631 33968 ft 504 kts 65°
2026-04-25 14:30 40.14616 -66.80154 34081 ft 505 kts 65°
2026-04-25 14:31 40.15378 -66.75651 33910 ft 507 kts 65°
2026-04-25 14:31 40.16120 -66.71157 33652 ft 506 kts 66°
2026-04-25 14:31 40.16837 -66.66713 33400 ft 506 kts 66°
2026-04-25 14:31 40.17552 -66.62198 33133 ft 507 kts 66°
2026-04-25 14:32 40.18965 -66.53127 33085 ft 509 kts 67°
2026-04-25 14:32 40.20363 -66.44047 33069 ft 509 kts 67°
2026-04-25 14:33 40.21752 -66.34949 33055 ft 509 kts 67°
2026-04-25 14:33 40.23126 -66.25910 33064 ft 509 kts 67°
2026-04-25 14:34 40.24504 -66.16808 33053 ft 510 kts 68°
2026-04-25 14:34 40.25880 -66.07694 33052 ft 512 kts 68°
2026-04-25 14:35 40.27263 -65.98499 33111 ft 516 kts 68°
2026-04-25 14:35 40.27950 -65.93893 33292 ft 516 kts 68°
2026-04-25 14:35 40.28634 -65.89283 33551 ft 515 kts 69°
2026-04-25 14:36 40.29317 -65.84677 33732 ft 515 kts 69°
2026-04-25 14:36 40.30000 -65.80065 33918 ft 515 kts 69°
2026-04-25 14:36 40.30679 -65.75465 34079 ft 515 kts 69°
2026-04-25 14:36 40.31357 -65.70857 34222 ft 515 kts 69°
2026-04-25 14:37 40.32033 -65.66244 34347 ft 515 kts 69°
2026-04-25 14:37 40.32708 -65.61631 34482 ft 515 kts 69°
2026-04-25 14:37 40.33382 -65.57020 34643 ft 515 kts 70°
2026-04-25 14:37 40.34048 -65.52468 34771 ft 515 kts 70°
2026-04-25 14:38 40.34719 -65.47868 34957 ft 514 kts 71°
2026-04-25 14:38 40.35392 -65.43260 35023 ft 515 kts 71°
2026-04-25 14:38 40.36730 -65.34031 35018 ft 514 kts 71°
2026-04-25 14:39 40.38048 -65.24829 35023 ft 513 kts 72°
2026-04-25 14:39 40.39358 -65.15620 35014 ft 513 kts 72°
2026-04-25 14:40 40.40659 -65.06407 35011 ft 513 kts 72°
2026-04-25 14:40 40.41952 -64.97181 35032 ft 513 kts 72°
2026-04-25 14:41 40.43237 -64.87970 35018 ft 512 kts 72°
2026-04-25 14:41 40.44503 -64.78836 35000 ft 511 kts 72°
2026-04-25 14:42 40.45351 -64.72694 35004 ft 512 kts 72°
2026-04-25 14:42 40.47027 -64.60450 34994 ft 512 kts 72°
2026-04-25 14:43 40.48278 -64.51245 35004 ft 512 kts 72°
2026-04-25 14:43 40.49521 -64.42038 35017 ft 512 kts 73°
2026-04-25 14:44 40.50759 -64.32830 34992 ft 510 kts 73°
2026-04-25 14:44 40.51977 -64.23733 34987 ft 508 kts 73°
2026-04-25 14:45 40.53196 -64.14572 34981 ft 508 kts 73°
2026-04-25 14:45 40.54402 -64.05418 34975 ft 508 kts 73°
2026-04-25 14:46 40.55604 -63.96247 34969 ft 508 kts 74°
2026-04-25 14:46 40.56794 -63.87106 34978 ft 507 kts 74°
2026-04-25 14:47 40.57577 -63.81054 34963 ft 505 kts 74°
2026-04-25 14:47 40.59132 -63.68950 34955 ft 504 kts 74°
2026-04-25 14:48 40.60296 -63.59834 34950 ft 504 kts 74°
2026-04-25 14:48 40.61450 -63.50732 34947 ft 504 kts 75°
2026-04-25 14:49 40.62596 -63.41634 34957 ft 505 kts 75°
2026-04-25 14:49 40.63738 -63.32510 34936 ft 505 kts 75°
2026-04-25 14:50 40.64873 -63.23383 34928 ft 504 kts 75°
2026-04-25 14:50 40.65998 -63.14269 34928 ft 504 kts 75°
2026-04-25 14:51 40.67118 -63.05137 34923 ft 505 kts 75°
2026-04-25 14:51 40.68234 -62.95988 34916 ft 506 kts 75°
2026-04-25 14:52 40.69340 -62.86839 34912 ft 506 kts 75°
2026-04-25 14:52 40.70076 -62.80713 34911 ft 506 kts 76°
2026-04-25 14:53 40.71535 -62.68526 34910 ft 505 kts 76°
2026-04-25 14:53 40.72622 -62.59367 34901 ft 505 kts 76°
2026-04-25 14:54 40.73692 -62.50270 34904 ft 506 kts 76°
2026-04-25 14:54 40.74764 -62.41093 34892 ft 506 kts 76°
2026-04-25 14:55 40.75829 -62.31915 34884 ft 506 kts 76°
2026-04-25 14:55 40.76885 -62.22752 34878 ft 505 kts 77°
2026-04-25 14:56 40.77933 -62.13593 34876 ft 505 kts 77°
2026-04-25 14:56 40.78974 -62.04432 34870 ft 505 kts 77°
2026-04-25 14:57 40.80000 -61.95328 34872 ft 505 kts 77°
2026-04-25 14:57 40.81025 -61.86159 34870 ft 505 kts 77°
2026-04-25 14:58 40.82045 -61.76980 34869 ft 505 kts 77°
2026-04-25 14:58 40.83055 -61.67830 34863 ft 503 kts 78°
2026-04-25 14:59 40.84056 -61.58672 34867 ft 503 kts 78°
2026-04-25 14:59 40.85049 -61.49522 34861 ft 503 kts 78°
2026-04-25 15:00 40.86035 -61.40361 34859 ft 503 kts 78°
2026-04-25 15:00 40.87007 -61.31260 34867 ft 504 kts 78°
2026-04-25 15:01 40.87980 -61.22095 34860 ft 502 kts 78°
2026-04-25 15:01 40.88940 -61.12958 34853 ft 501 kts 78°
2026-04-25 15:02 40.89737 -61.05306 34848 ft 501 kts 78°
2026-04-25 15:02 40.90679 -60.96218 34841 ft 502 kts 78°
2026-04-25 15:03 40.91622 -60.87054 34842 ft 502 kts 79°
2026-04-25 15:03 40.92558 -60.77894 34837 ft 502 kts 79°
2026-04-25 15:04 40.93480 -60.68786 34831 ft 503 kts 79°
2026-04-25 15:04 40.94402 -60.59620 34825 ft 503 kts 79°
2026-04-25 15:05 40.95317 -60.50442 34819 ft 503 kts 79°
2026-04-25 15:06 40.96675 -60.36650 34819 ft 505 kts 79°
2026-04-25 15:06 40.97575 -60.27416 34820 ft 505 kts 79°
2026-04-25 15:07 40.98463 -60.18223 34812 ft 502 kts 79°
2026-04-25 15:07 40.99341 -60.09054 34814 ft 502 kts 80°
2026-04-25 15:08 41.00214 -59.99855 34810 ft 504 kts 80°
2026-04-25 15:08 41.01315 -59.90710 34808 ft 502 kts 76°
2026-04-25 15:09 41.02683 -59.81635 34804 ft 502 kts 75°
2026-04-25 15:09 41.04721 -59.68092 34796 ft 501 kts 76°
2026-04-25 15:10 41.06029 -59.59022 34797 ft 502 kts 76°
2026-04-25 15:11 41.07961 -59.45338 34792 ft 503 kts 77°
2026-04-25 15:11 41.09236 -59.36215 34792 ft 503 kts 77°
2026-04-25 15:12 41.11129 -59.22587 34782 ft 502 kts 77°
2026-04-25 15:12 41.12185 -59.14935 34772 ft 503 kts 77°
2026-04-25 15:13 41.14271 -58.99718 34767 ft 505 kts 77°
2026-04-25 15:14 41.15518 -58.90543 34775 ft 505 kts 77°
2026-04-25 15:14 41.16754 -58.81382 34758 ft 504 kts 77°
2026-04-25 15:15 41.17977 -58.72260 34760 ft 504 kts 77°
2026-04-25 15:15 41.19204 -58.63060 34755 ft 506 kts 77°
2026-04-25 15:16 41.20423 -58.53872 34751 ft 507 kts 77°
2026-04-25 15:16 41.22243 -58.40020 34745 ft 506 kts 78°
2026-04-25 15:17 41.24040 -58.26201 34745 ft 506 kts 78°
2026-04-25 15:18 41.25230 -58.16967 34740 ft 508 kts 78°
2026-04-25 15:18 41.27011 -58.03054 34745 ft 509 kts 78°
2026-04-25 15:19 41.27990 -57.95342 34736 ft 509 kts 78°
2026-04-25 15:19 41.29353 -57.84545 34724 ft 509 kts 78°
2026-04-25 15:20 41.30320 -57.76827 34724 ft 509 kts 78°
2026-04-25 15:20 41.31672 -57.65961 34722 ft 509 kts 78°
2026-04-25 15:21 41.32820 -57.56665 34734 ft 509 kts 78°
2026-04-25 15:21 41.33953 -57.47433 34710 ft 508 kts 78°
2026-04-25 15:22 41.35084 -57.38138 34709 ft 509 kts 78°
2026-04-25 15:22 41.36209 -57.28848 34710 ft 509 kts 79°
2026-04-25 15:23 41.37332 -57.19513 34703 ft 512 kts 79°
2026-04-25 15:23 41.38452 -57.10143 34710 ft 512 kts 79°
2026-04-25 15:24 41.39564 -57.00767 34695 ft 511 kts 79°
2026-04-25 15:24 41.40479 -56.92983 34688 ft 511 kts 79°
2026-04-25 15:25 41.41750 -56.82102 34687 ft 512 kts 79°
2026-04-25 15:25 41.42840 -56.72715 34687 ft 514 kts 79°
2026-04-25 15:26 41.43927 -56.63287 34676 ft 515 kts 80°
2026-04-25 15:26 41.44965 -56.54204 34673 ft 514 kts 80°
2026-04-25 15:27 41.46071 -56.44450 34666 ft 513 kts 79°
2026-04-25 15:28 41.47616 -56.30688 34656 ft 516 kts 80°
2026-04-25 15:28 41.48674 -56.21198 34657 ft 517 kts 80°
2026-04-25 15:29 41.49252 -56.15975 34655 ft 516 kts 80°
2026-04-25 15:37 41.51289 -55.97336 34645 ft 516 kts 81°
2026-04-25 15:37 41.52259 -55.87960 34645 ft 516 kts 81°
2026-04-25 15:38 41.53260 -55.78371 34643 ft 519 kts 81°
2026-04-25 15:38 41.54273 -55.68805 34636 ft 519 kts 81°
2026-04-25 15:39 41.55286 -55.59235 34639 ft 518 kts 81°
2026-04-25 15:39 41.56281 -55.49769 34628 ft 518 kts 81°
2026-04-25 15:40 41.56940 -55.43453 34631 ft 519 kts 81°
2026-04-25 15:40 41.58268 -55.30619 34639 ft 521 kts 81°
2026-04-25 15:41 41.59246 -55.21053 34617 ft 522 kts 82°
2026-04-25 15:41 41.60233 -55.11306 34617 ft 522 kts 82°
2026-04-25 15:42 41.61188 -55.01789 34609 ft 522 kts 82°
2026-04-25 15:42 41.62182 -54.91816 34611 ft 523 kts 82°
2026-04-25 15:43 41.63139 -54.82135 34613 ft 525 kts 82°
2026-04-25 15:43 41.64086 -54.72473 34609 ft 524 kts 82°
2026-04-25 15:44 41.65023 -54.62820 34603 ft 524 kts 82°
2026-04-25 15:44 41.65948 -54.53205 34601 ft 524 kts 82°
2026-04-25 15:45 41.66871 -54.43518 34587 ft 524 kts 82°
2026-04-25 15:45 41.67484 -54.37044 34603 ft 526 kts 82°
2026-04-25 15:46 41.68699 -54.24102 34593 ft 526 kts 82°
2026-04-25 15:46 41.69557 -54.14845 34595 ft 526 kts 83°
2026-04-25 15:47 41.70451 -54.05117 34590 ft 526 kts 83°
2026-04-25 15:47 41.71376 -53.94950 34582 ft 526 kts 83°
2026-04-25 15:48 41.72255 -53.85205 34584 ft 529 kts 83°
2026-04-25 15:48 41.72982 -53.77076 34584 ft 529 kts 83°
2026-04-25 15:49 41.73989 -53.65706 34579 ft 529 kts 83°
2026-04-25 15:49 41.74708 -53.57491 34578 ft 529 kts 83°
2026-04-25 15:50 41.75552 -53.47763 34577 ft 529 kts 83°
2026-04-25 15:50 41.76395 -53.37954 34579 ft 531 kts 83°
2026-04-25 15:51 41.77097 -53.29706 34573 ft 531 kts 84°
2026-04-25 15:51 41.78062 -53.18261 34570 ft 532 kts 84°
2026-04-25 15:52 41.78883 -53.08400 34570 ft 531 kts 84°
2026-04-25 15:52 41.79689 -52.98618 34578 ft 531 kts 84°
2026-04-25 15:53 41.80492 -52.88761 34567 ft 531 kts 84°
2026-04-25 15:53 41.81286 -52.78913 34565 ft 531 kts 84°
2026-04-25 15:54 41.82073 -52.69051 34565 ft 531 kts 84°
2026-04-25 15:54 41.82850 -52.59192 34562 ft 531 kts 84°
2026-04-25 15:55 41.83619 -52.49337 34552 ft 531 kts 84°
2026-04-25 15:55 41.84382 -52.39466 34560 ft 534 kts 85°
2026-04-25 15:56 41.85140 -52.29552 34559 ft 534 kts 85°
2026-04-25 15:56 41.85889 -52.19637 34556 ft 534 kts 85°
2026-04-25 15:57 41.86628 -52.09723 34559 ft 534 kts 85°
2026-04-25 15:57 41.87294 -51.99792 34540 ft 534 kts 85°
2026-04-25 15:58 41.87957 -51.89843 34560 ft 537 kts 85°
2026-04-25 15:58 41.88652 -51.79913 34553 ft 538 kts 85°
2026-04-25 15:59 41.89361 -51.69913 34553 ft 538 kts 85°
2026-04-25 15:59 41.90064 -51.59923 34551 ft 538 kts 85°
2026-04-25 16:00 41.90640 -51.51608 34536 ft 538 kts 85°
2026-04-25 16:00 41.91441 -51.39878 34553 ft 541 kts 86°
2026-04-25 16:01 41.92114 -51.29871 34550 ft 542 kts 86°
2026-04-25 16:01 41.92785 -51.19786 34547 ft 542 kts 86°
2026-04-25 16:02 41.93445 -51.09713 34553 ft 541 kts 86°
2026-04-25 16:02 41.94096 -50.99646 34538 ft 541 kts 86°
2026-04-25 16:03 41.94740 -50.89547 34548 ft 544 kts 86°
2026-04-25 16:03 41.95377 -50.79416 34547 ft 544 kts 86°
2026-04-25 16:04 41.96003 -50.69322 34549 ft 544 kts 86°
2026-04-25 16:04 41.96623 -50.59178 34548 ft 544 kts 87°
2026-04-25 16:05 41.97233 -50.49053 34545 ft 544 kts 87°
2026-04-25 16:06 41.98132 -50.33826 34548 ft 546 kts 87°
2026-04-25 16:06 41.98722 -50.23653 34551 ft 546 kts 87°
2026-04-25 16:07 41.99300 -50.13534 34552 ft 545 kts 88°
2026-04-25 16:07 41.99872 -50.03371 34528 ft 545 kts 88°
2026-04-25 16:08 42.01029 -49.93268 34549 ft 548 kts 81°
2026-04-25 16:08 42.02459 -49.83190 34550 ft 549 kts 80°
2026-04-25 16:09 42.03927 -49.73114 34556 ft 549 kts 80°
2026-04-25 16:09 42.05380 -49.63026 34553 ft 548 kts 81°
2026-04-25 16:10 42.06812 -49.52950 34556 ft 548 kts 81°
2026-04-25 16:10 42.08229 -49.42878 34532 ft 548 kts 81°
2026-04-25 16:11 42.09643 -49.32753 34562 ft 551 kts 81°
2026-04-25 16:11 42.11038 -49.22713 34554 ft 551 kts 81°
2026-04-25 16:12 42.12440 -49.12550 34562 ft 551 kts 82°
2026-04-25 16:12 42.13832 -49.02396 34558 ft 551 kts 82°
2026-04-25 16:13 42.15207 -48.92293 34560 ft 551 kts 82°
2026-04-25 16:13 42.16583 -48.82111 34548 ft 551 kts 82°
2026-04-25 16:14 42.17950 -48.71919 34563 ft 553 kts 82°
2026-04-25 16:14 42.19310 -48.61706 34561 ft 554 kts 82°
2026-04-25 16:15 42.20663 -48.51482 34562 ft 553 kts 82°
2026-04-25 16:15 42.22005 -48.41276 34562 ft 552 kts 83°
2026-04-25 16:16 42.23327 -48.31140 34571 ft 552 kts 83°
2026-04-25 16:16 42.24649 -48.20928 34534 ft 552 kts 83°
2026-04-25 16:17 42.25967 -48.10660 34566 ft 557 kts 83°
2026-04-25 16:17 42.27283 -48.00350 34564 ft 556 kts 83°
2026-04-25 16:18 42.28587 -47.90064 34562 ft 556 kts 83°
2026-04-25 16:18 42.29882 -47.79765 34562 ft 556 kts 83°
2026-04-25 16:19 42.31158 -47.69531 34568 ft 556 kts 84°
2026-04-25 16:19 42.32434 -47.59230 34567 ft 555 kts 84°
2026-04-25 16:20 42.34326 -47.43795 34570 ft 555 kts 84°
2026-04-25 16:21 42.36198 -47.28354 34570 ft 555 kts 84°
2026-04-25 16:21 42.37434 -47.18054 34575 ft 555 kts 84°
2026-04-25 16:22 42.38661 -47.07757 34575 ft 554 kts 84°
2026-04-25 16:22 42.39871 -46.97511 34571 ft 555 kts 84°
2026-04-25 16:23 42.41083 -46.87165 34579 ft 557 kts 84°
2026-04-25 16:23 42.42289 -46.76801 34577 ft 557 kts 85°
2026-04-25 16:24 42.43485 -46.66431 34578 ft 557 kts 85°
2026-04-25 16:24 42.44672 -46.56060 34580 ft 557 kts 85°
2026-04-25 16:25 42.45848 -46.45693 34581 ft 556 kts 85°
2026-04-25 16:25 42.47014 -46.35329 34581 ft 557 kts 85°
2026-04-25 16:26 42.48171 -46.24941 34591 ft 558 kts 85°
2026-04-25 16:26 42.49317 -46.14586 34587 ft 558 kts 85°
2026-04-25 16:27 42.50459 -46.04179 34586 ft 558 kts 85°
2026-04-25 16:27 42.51589 -45.93784 34588 ft 557 kts 85°
2026-04-25 16:28 42.52710 -45.83384 34591 ft 557 kts 86°
2026-04-25 16:28 42.53821 -45.72984 34585 ft 557 kts 86°
2026-04-25 16:29 42.54916 -45.62641 34593 ft 557 kts 86°
2026-04-25 16:29 42.56009 -45.52233 34601 ft 556 kts 86°
2026-04-25 16:30 42.57090 -45.41839 34598 ft 556 kts 86°
2026-04-25 16:30 42.58161 -45.31445 34601 ft 556 kts 86°
2026-04-25 16:31 42.59224 -45.21045 34603 ft 556 kts 86°
2026-04-25 16:31 42.60270 -45.10712 34600 ft 556 kts 86°
2026-04-25 16:32 42.61312 -45.00309 34603 ft 556 kts 86°
2026-04-25 16:32 42.62347 -44.89889 34600 ft 556 kts 87°
2026-04-25 16:33 42.63370 -44.79491 34603 ft 555 kts 87°
2026-04-25 16:33 42.64384 -44.69097 34603 ft 555 kts 87°
2026-04-25 16:34 42.65387 -44.58700 34606 ft 555 kts 87°
2026-04-25 16:34 42.66373 -44.48376 34610 ft 555 kts 87°
2026-04-25 16:35 42.67359 -44.37968 34608 ft 555 kts 87°
2026-04-25 16:35 42.68334 -44.27560 34614 ft 555 kts 87°
2026-04-25 16:36 42.69300 -44.17151 34611 ft 555 kts 88°
2026-04-25 16:36 42.70257 -44.06735 34614 ft 554 kts 88°
2026-04-25 16:37 42.71197 -43.96396 34616 ft 554 kts 88°
2026-04-25 16:37 42.72132 -43.86004 34613 ft 554 kts 88°
2026-04-25 16:38 42.73058 -43.75610 34622 ft 553 kts 88°
2026-04-25 16:38 42.73974 -43.65217 34622 ft 553 kts 88°
2026-04-25 16:39 42.74728 -43.56575 34617 ft 553 kts 88°
2026-04-25 16:39 42.75632 -43.46122 34619 ft 552 kts 88°
2026-04-25 16:40 42.76513 -43.35822 34623 ft 552 kts 88°
2026-04-25 16:40 42.77391 -43.25427 34617 ft 552 kts 88°
2026-04-25 16:41 42.78259 -43.15056 34624 ft 551 kts 88°
2026-04-25 16:41 42.79545 -42.99499 34631 ft 551 kts 88°
2026-04-25 16:42 42.80389 -42.89126 34625 ft 551 kts 88°
2026-04-25 16:42 42.81222 -42.78750 34606 ft 551 kts 88°
2026-04-25 16:43 42.82045 -42.68388 34628 ft 548 kts 89°
2026-04-25 16:43 42.82850 -42.58153 34630 ft 546 kts 89°
2026-04-25 16:44 42.83648 -42.47858 34622 ft 546 kts 89°
2026-04-25 16:44 42.84438 -42.37558 34636 ft 546 kts 89°
2026-04-25 16:45 42.85218 -42.27264 34630 ft 544 kts 89°
2026-04-25 16:45 42.85987 -42.17007 34630 ft 544 kts 89°
2026-04-25 16:46 42.86746 -42.06754 34631 ft 544 kts 89°
2026-04-25 16:46 42.87369 -41.98227 34624 ft 544 kts 89°
2026-04-25 16:47 42.88235 -41.86250 34636 ft 542 kts 89°
2026-04-25 16:47 42.88963 -41.76039 34636 ft 541 kts 89°
2026-04-25 16:48 42.89677 -41.65893 34636 ft 541 kts 89°
2026-04-25 16:48 42.90385 -41.55684 34636 ft 541 kts 89°
2026-04-25 16:49 42.91086 -41.45474 34643 ft 540 kts 89°
2026-04-25 16:49 42.91776 -41.35282 34645 ft 539 kts 89°
2026-04-25 16:50 42.92455 -41.25101 34651 ft 539 kts 89°
2026-04-25 16:50 42.93126 -41.14916 34650 ft 539 kts 89°
2026-04-25 16:51 42.93787 -41.04741 34651 ft 538 kts 90°
2026-04-25 16:51 42.94329 -40.96291 34655 ft 537 kts 90°
2026-04-25 16:52 42.95075 -40.84485 34655 ft 537 kts 90°
2026-04-25 16:52 42.95709 -40.74312 34651 ft 537 kts 90°
2026-04-25 16:53 42.96643 -40.59011 34664 ft 539 kts 90°
2026-04-25 16:54 42.97256 -40.48811 34664 ft 539 kts 90°
2026-04-25 16:54 42.97859 -40.38617 34666 ft 538 kts 90°
2026-04-25 16:55 42.98449 -40.28480 34668 ft 538 kts 90°
2026-04-25 16:55 42.99034 -40.18280 34668 ft 537 kts 90°
2026-04-25 16:56 42.99608 -40.08122 34661 ft 537 kts 90°
2026-04-25 16:56 43.00173 -39.97916 35000 ft 538 kts 90°
2026-04-25 16:56 43.00421 -39.92823 35194 ft 536 kts 91°
2026-04-25 16:57 43.00634 -39.87810 35152 ft 535 kts 91°
2026-04-25 16:57 43.01033 -39.77652 34927 ft 536 kts 91°
2026-04-25 16:57 43.01232 -39.72567 34755 ft 536 kts 91°
2026-04-25 16:58 43.01433 -39.67484 34676 ft 536 kts 91°
2026-04-25 16:58 43.01840 -39.57288 34669 ft 537 kts 91°
2026-04-25 16:59 43.02243 -39.47090 34668 ft 538 kts 91°
2026-04-25 16:59 43.02638 -39.36837 34678 ft 541 kts 91°
2026-04-25 17:00 43.03027 -39.26546 34690 ft 541 kts 91°
2026-04-25 17:00 43.03405 -39.16273 34702 ft 541 kts 91°
2026-04-25 17:01 43.03774 -39.06004 34702 ft 541 kts 92°
2026-04-25 17:01 43.04131 -38.95796 34710 ft 541 kts 92°
2026-04-25 17:02 43.04480 -38.85528 34705 ft 541 kts 92°
2026-04-25 17:02 43.04820 -38.75212 34719 ft 544 kts 92°
2026-04-25 17:03 43.05155 -38.64866 34719 ft 545 kts 92°
2026-04-25 17:03 43.05481 -38.54508 34719 ft 545 kts 92°
2026-04-25 17:04 43.05797 -38.44160 34730 ft 544 kts 92°
2026-04-25 17:04 43.06102 -38.33831 34738 ft 544 kts 92°
2026-04-25 17:05 43.06397 -38.23507 34738 ft 544 kts 91°
2026-04-25 17:05 43.06822 -38.08031 34747 ft 545 kts 91°
2026-04-25 17:06 43.07097 -37.97675 34768 ft 544 kts 91°
2026-04-25 17:06 43.07361 -37.87338 34768 ft 544 kts 91°
2026-04-25 17:07 43.07614 -37.77009 34780 ft 543 kts 92°
2026-04-25 17:07 43.07858 -37.66673 34780 ft 543 kts 92°
2026-04-25 17:08 43.08094 -37.56353 34784 ft 542 kts 91°
2026-04-25 17:08 43.08320 -37.46062 34793 ft 540 kts 92°
2026-04-25 17:09 43.08534 -37.35841 34796 ft 540 kts 92°
2026-04-25 17:09 43.08740 -37.25562 34805 ft 540 kts 92°
2026-04-25 17:10 43.08937 -37.15282 34806 ft 540 kts 92°
2026-04-25 17:10 43.09125 -37.05015 34812 ft 540 kts 92°
2026-04-25 17:11 43.09303 -36.94761 34829 ft 539 kts 92°
2026-04-25 17:11 43.09473 -36.84493 34827 ft 539 kts 92°
2026-04-25 17:12 43.09633 -36.74235 34839 ft 540 kts 92°
2026-04-25 17:12 43.09784 -36.63945 34838 ft 542 kts 92°
2026-04-25 17:13 43.09880 -36.57042 34841 ft 542 kts 92°
2026-04-25 17:13 43.10060 -36.43322 34857 ft 542 kts 92°
2026-04-25 17:14 43.10183 -36.33059 34843 ft 542 kts 91°
2026-04-25 17:14 43.10299 -36.22761 34870 ft 539 kts 91°
2026-04-25 17:15 43.10404 -36.12528 34870 ft 538 kts 91°
2026-04-25 17:15 43.10500 -36.02273 34887 ft 538 kts 91°
2026-04-25 17:16 43.10586 -35.92016 34886 ft 538 kts 91°
2026-04-25 17:16 43.10664 -35.81866 34891 ft 535 kts 92°
2026-04-25 17:17 43.10732 -35.71697 34899 ft 533 kts 91°
2026-04-25 17:17 43.10790 -35.61562 34903 ft 532 kts 91°
2026-04-25 17:18 43.10839 -35.51424 34905 ft 532 kts 91°
2026-04-25 17:18 43.10896 -35.41636 34906 ft 533 kts 92°
2026-04-25 17:19 43.10916 -35.31538 34908 ft 534 kts 92°
2026-04-25 17:19 43.10926 -35.21379 34918 ft 534 kts 92°
2026-04-25 17:20 43.10936 -35.11203 34920 ft 534 kts 92°
2026-04-25 17:20 43.10942 -35.01049 34931 ft 534 kts 92°
2026-04-25 17:21 43.10942 -34.90901 34934 ft 533 kts 92°
2026-04-25 17:21 43.10932 -34.80828 34938 ft 532 kts 92°
2026-04-25 17:22 43.10920 -34.74043 34945 ft 532 kts 92°
2026-04-25 17:22 43.10883 -34.60579 34949 ft 532 kts 92°
2026-04-25 17:23 43.10845 -34.50417 34960 ft 532 kts 93°
2026-04-25 17:23 43.10801 -34.40330 34962 ft 528 kts 93°
2026-04-25 17:24 43.10748 -34.30302 34957 ft 527 kts 93°
2026-04-25 17:24 43.10684 -34.20268 34968 ft 527 kts 93°
2026-04-25 17:25 43.10610 -34.10233 34969 ft 527 kts 93°
2026-04-25 17:25 43.10528 -34.00203 34982 ft 527 kts 93°
2026-04-25 17:26 43.10437 -33.90169 34961 ft 527 kts 93°
2026-04-25 17:26 43.10340 -33.80219 34987 ft 526 kts 92°
2026-04-25 17:27 43.10281 -33.70221 34993 ft 525 kts 93°
2026-04-25 17:27 43.10208 -33.63519 34997 ft 525 kts 93°
2026-04-25 17:28 43.10018 -33.50213 35000 ft 525 kts 95°
2026-04-25 17:28 43.09838 -33.40251 35002 ft 525 kts 94°
2026-04-25 17:29 43.09666 -33.30258 35002 ft 525 kts 94°
2026-04-25 17:29 43.09550 -33.21946 35009 ft 525 kts 94°
2026-04-25 17:30 43.09373 -33.10333 35018 ft 526 kts 94°
2026-04-25 17:30 43.09193 -33.00331 35021 ft 525 kts 95°
2026-04-25 17:31 43.09088 -32.92024 35020 ft 525 kts 94°
2026-04-25 17:31 43.08934 -32.82031 35020 ft 525 kts 94°
2026-04-25 17:32 43.08731 -32.72048 35032 ft 526 kts 94°
2026-04-25 17:32 43.08492 -32.62024 35028 ft 526 kts 94°
2026-04-25 17:33 43.08262 -32.52014 35038 ft 524 kts 94°
2026-04-25 17:33 43.08042 -32.42048 35050 ft 524 kts 94°
2026-04-25 17:34 43.07817 -32.32119 35040 ft 525 kts 94°
2026-04-25 17:34 43.07582 -32.22128 35048 ft 525 kts 94°
2026-04-25 17:35 43.07341 -32.12171 35046 ft 525 kts 94°
2026-04-25 17:35 43.07089 -32.02194 35049 ft 524 kts 93°
2026-04-25 17:36 43.06825 -31.92219 35058 ft 524 kts 93°
2026-04-25 17:36 43.06550 -31.82231 35062 ft 525 kts 93°
2026-04-25 17:37 43.06269 -31.72263 35063 ft 525 kts 93°
2026-04-25 17:37 43.05983 -31.62355 35063 ft 525 kts 93°
2026-04-25 17:38 43.05738 -31.54061 35081 ft 525 kts 93°
2026-04-25 17:38 43.05381 -31.42400 35059 ft 525 kts 93°
2026-04-25 17:39 43.05065 -31.32438 35079 ft 523 kts 93°
2026-04-25 17:39 43.04739 -31.22495 35080 ft 523 kts 93°
2026-04-25 17:40 43.04409 -31.12617 35085 ft 523 kts 93°
2026-04-25 17:40 43.04071 -31.02690 35088 ft 521 kts 93°
2026-04-25 17:41 43.03725 -30.92802 35087 ft 521 kts 93°
2026-04-25 17:41 43.03370 -30.82911 35087 ft 521 kts 93°
2026-04-25 17:42 43.03006 -30.73021 35090 ft 520 kts 93°
2026-04-25 17:42 43.02632 -30.63175 35097 ft 519 kts 93°
2026-04-25 17:43 43.02254 -30.53394 35100 ft 518 kts 93°
2026-04-25 17:43 43.01866 -30.43552 35098 ft 518 kts 93°
2026-04-25 17:44 43.01471 -30.33702 35096 ft 519 kts 93°
2026-04-25 17:44 43.01069 -30.23880 35104 ft 519 kts 93°
2026-04-25 17:45 43.00726 -30.15678 35107 ft 519 kts 93°
2026-04-25 17:45 43.00235 -30.04217 35099 ft 517 kts 93°
2026-04-25 17:46 43.00237 -29.94395 35106 ft 516 kts 87°
2026-04-25 17:46 43.00595 -29.84589 35110 ft 516 kts 86°
2026-04-25 17:47 43.01026 -29.74806 35101 ft 514 kts 85°
2026-04-25 17:47 43.01447 -29.65126 35106 ft 513 kts 86°
2026-04-25 17:48 43.02044 -29.50518 35104 ft 513 kts 86°
2026-04-25 17:49 43.02425 -29.40774 35106 ft 513 kts 86°
2026-04-25 17:49 43.02794 -29.31079 35113 ft 509 kts 86°
2026-04-25 17:50 43.03154 -29.21404 35105 ft 509 kts 86°
2026-04-25 17:50 43.03506 -29.11744 35117 ft 509 kts 86°
2026-04-25 17:51 43.03850 -29.02080 35111 ft 509 kts 86°
2026-04-25 17:51 43.04186 -28.92459 35106 ft 509 kts 86°
2026-04-25 17:52 43.04515 -28.82799 35108 ft 509 kts 86°
2026-04-25 17:52 43.04836 -28.73115 35113 ft 509 kts 86°
2026-04-25 17:53 43.05148 -28.63441 35116 ft 509 kts 87°
2026-04-25 17:53 43.05452 -28.53769 35111 ft 508 kts 87°
2026-04-25 17:54 43.05748 -28.44109 35112 ft 508 kts 87°
2026-04-25 17:54 43.06035 -28.34449 35112 ft 508 kts 87°
2026-04-25 17:55 43.06314 -28.24777 35117 ft 508 kts 87°
2026-04-25 17:55 43.06584 -28.15136 35115 ft 506 kts 87°
2026-04-25 17:56 43.06844 -28.05588 35116 ft 505 kts 87°
2026-04-25 17:56 43.07097 -27.95974 35114 ft 505 kts 87°
2026-04-25 17:57 43.07342 -27.86372 35119 ft 505 kts 87°
2026-04-25 17:57 43.07579 -27.76754 35120 ft 504 kts 87°
2026-04-25 17:58 43.07806 -27.67168 35112 ft 504 kts 87°
2026-04-25 17:58 43.08025 -27.57602 35114 ft 504 kts 87°
2026-04-25 17:59 43.08246 -27.48079 35113 ft 504 kts 87°
2026-04-25 17:59 43.08456 -27.38503 35121 ft 503 kts 87°
2026-04-25 18:00 43.08652 -27.28927 35122 ft 503 kts 87°
2026-04-25 18:00 43.08837 -27.19340 35127 ft 504 kts 88°
2026-04-25 18:01 43.09014 -27.09759 35120 ft 504 kts 88°
2026-04-25 18:01 43.09183 -27.00241 35128 ft 503 kts 88°
2026-04-25 18:02 43.09345 -26.90679 35123 ft 503 kts 88°
2026-04-25 18:02 43.09499 -26.81109 35124 ft 502 kts 88°
2026-04-25 18:03 43.09644 -26.71581 35127 ft 502 kts 88°
2026-04-25 18:03 43.09783 -26.61992 35134 ft 502 kts 88°
2026-04-25 18:04 43.09913 -26.52463 35128 ft 502 kts 88°
2026-04-25 18:04 43.10035 -26.42898 35131 ft 502 kts 88°
2026-04-25 18:05 43.10151 -26.33340 35125 ft 502 kts 88°
2026-04-25 18:05 43.10258 -26.23841 35129 ft 502 kts 88°
2026-04-25 18:06 43.10358 -26.14289 35134 ft 502 kts 88°
2026-04-25 18:06 43.10451 -26.04734 35129 ft 502 kts 88°
2026-04-25 18:07 43.10534 -25.95187 35134 ft 501 kts 88°
2026-04-25 18:07 43.10609 -25.85662 35134 ft 500 kts 88°
2026-04-25 18:08 43.10674 -25.76148 35131 ft 500 kts 88°
2026-04-25 18:08 43.10733 -25.66639 35123 ft 500 kts 88°
2026-04-25 18:09 43.10785 -25.57122 35127 ft 500 kts 88°
2026-04-25 18:09 43.10829 -25.47603 35127 ft 500 kts 88°
2026-04-25 18:10 43.10865 -25.38091 35124 ft 500 kts 88°
2026-04-25 18:10 43.10893 -25.28632 35128 ft 500 kts 88°
2026-04-25 18:11 43.10913 -25.19117 35116 ft 500 kts 88°
2026-04-25 18:11 43.10926 -25.09608 35128 ft 499 kts 88°
2026-04-25 18:12 43.10930 -25.00111 35119 ft 499 kts 88°
2026-04-25 18:12 43.10928 -24.90613 35117 ft 499 kts 88°
2026-04-25 18:13 43.10918 -24.81127 35115 ft 499 kts 88°
2026-04-25 18:13 43.10900 -24.71635 35120 ft 499 kts 88°
2026-04-25 18:14 43.10859 -24.57468 35117 ft 498 kts 89°
2026-04-25 18:14 43.10822 -24.47974 35115 ft 498 kts 89°
2026-04-25 18:15 43.10777 -24.38494 35113 ft 498 kts 89°
2026-04-25 18:15 43.10725 -24.28998 35109 ft 498 kts 89°
2026-04-25 18:16 43.10667 -24.19532 35103 ft 497 kts 89°
2026-04-25 18:17 43.10565 -24.05336 35108 ft 497 kts 89°
2026-04-25 18:17 43.10499 -23.97474 35109 ft 497 kts 90°
2026-04-25 18:18 43.10398 -23.86476 35104 ft 497 kts 90°
2026-04-25 18:18 43.10304 -23.77039 35100 ft 497 kts 90°
2026-04-25 18:19 43.10218 -23.69161 35105 ft 497 kts 90°
2026-04-25 18:19 43.10108 -23.59696 35098 ft 497 kts 90°
2026-04-25 18:20 43.09990 -23.50251 35098 ft 497 kts 90°
2026-04-25 18:20 43.09868 -23.40790 35096 ft 496 kts 91°
2026-04-25 18:21 43.09739 -23.31364 35097 ft 496 kts 91°
2026-04-25 18:21 43.09600 -23.21912 35098 ft 496 kts 91°
2026-04-25 18:22 43.09451 -23.12491 35098 ft 496 kts 91°
2026-04-25 18:22 43.09295 -23.03098 35094 ft 496 kts 91°
2026-04-25 18:23 43.09129 -22.93605 35092 ft 496 kts 91°
2026-04-25 18:23 43.08956 -22.84215 35091 ft 496 kts 91°
2026-04-25 18:24 43.08775 -22.74774 35097 ft 496 kts 91°
2026-04-25 18:24 43.08587 -22.65326 35091 ft 497 kts 92°
2026-04-25 18:25 43.08393 -22.55836 35092 ft 498 kts 92°
2026-04-25 18:25 43.08191 -22.46366 35090 ft 498 kts 92°
2026-04-25 18:26 43.07995 -22.37552 35095 ft 498 kts 92°
2026-04-25 18:26 43.07776 -22.28086 35092 ft 498 kts 92°
2026-04-25 18:27 43.07549 -22.18616 35093 ft 498 kts 92°
2026-04-25 18:27 43.07315 -22.09187 35092 ft 498 kts 92°
2026-04-25 18:28 43.07072 -21.99713 35092 ft 498 kts 92°
2026-04-25 18:28 43.06823 -21.90242 35093 ft 500 kts 93°
2026-04-25 18:29 43.06436 -21.75932 35103 ft 504 kts 94°
2026-04-25 18:30 43.05895 -21.56692 35104 ft 507 kts 94°
2026-04-25 18:30 43.05631 -21.47043 35116 ft 511 kts 94°
2026-04-25 18:31 43.05342 -21.37291 35113 ft 512 kts 94°
2026-04-25 18:31 43.05034 -21.27630 35110 ft 512 kts 95°
2026-04-25 18:32 43.04709 -21.17908 35116 ft 512 kts 95°
2026-04-25 18:32 43.04377 -21.08153 35099 ft 516 kts 96°
2026-04-25 18:33 43.04037 -20.98300 35115 ft 519 kts 96°
2026-04-25 18:33 43.03692 -20.88430 35103 ft 519 kts 96°
2026-04-25 18:34 43.03338 -20.78550 35111 ft 520 kts 97°
2026-04-25 18:34 43.02946 -20.68722 35104 ft 522 kts 98°
2026-04-25 18:35 43.02542 -20.58798 35107 ft 522 kts 98°
2026-04-25 18:35 43.02153 -20.48871 35107 ft 523 kts 97°
2026-04-25 18:36 43.01769 -20.38950 35112 ft 524 kts 97°
2026-04-25 18:36 43.01376 -20.28991 35113 ft 524 kts 97°
2026-04-25 18:37 43.00973 -20.19042 35117 ft 524 kts 98°
2026-04-25 18:37 43.00558 -20.09101 35115 ft 524 kts 97°
2026-04-25 18:38 43.00376 -19.99198 35123 ft 528 kts 88°
2026-04-25 18:38 43.01181 -19.89261 35117 ft 530 kts 85°
2026-04-25 18:39 43.02242 -19.79237 35126 ft 531 kts 84°
2026-04-25 18:39 43.03301 -19.69258 35123 ft 531 kts 84°
2026-04-25 18:40 43.04320 -19.59259 35125 ft 531 kts 85°
2026-04-25 18:40 43.05310 -19.49245 35124 ft 531 kts 85°
2026-04-25 18:41 43.06283 -19.39228 35124 ft 531 kts 84°
2026-04-25 18:41 43.07246 -19.29209 35132 ft 531 kts 85°
2026-04-25 18:42 43.07886 -19.22513 35129 ft 531 kts 85°
2026-04-25 18:42 43.09155 -19.09160 35132 ft 531 kts 85°
2026-04-25 18:43 43.10097 -18.99139 35133 ft 531 kts 85°
2026-04-25 18:43 43.11032 -18.89105 35138 ft 531 kts 85°
2026-04-25 18:44 43.11951 -18.79149 35137 ft 531 kts 85°
2026-04-25 18:44 43.12870 -18.69099 35135 ft 531 kts 85°
2026-04-25 18:45 43.13779 -18.59050 35135 ft 531 kts 85°
2026-04-25 18:45 43.14679 -18.49014 35137 ft 531 kts 85°
2026-04-25 18:46 43.15571 -18.38969 35142 ft 530 kts 85°
2026-04-25 18:46 43.16441 -18.29074 35147 ft 527 kts 85°
2026-04-25 18:47 43.17312 -18.19046 35148 ft 527 kts 85°
2026-04-25 18:47 43.18165 -18.09104 35152 ft 527 kts 85°
2026-04-25 18:48 43.19015 -17.99131 35152 ft 524 kts 86°
2026-04-25 18:48 43.19851 -17.89209 35152 ft 523 kts 86°
2026-04-25 18:49 43.20670 -17.79373 35157 ft 521 kts 86°
2026-04-25 18:49 43.21487 -17.69465 35154 ft 519 kts 86°
2026-04-25 18:50 43.22280 -17.59721 35162 ft 518 kts 86°
2026-04-25 18:50 43.23072 -17.49888 35166 ft 518 kts 87°
2026-04-25 18:51 43.23598 -17.43315 35170 ft 518 kts 87°
2026-04-25 18:51 43.24632 -17.30233 35178 ft 518 kts 87°
2026-04-25 18:52 43.25399 -17.20404 35161 ft 518 kts 87°
2026-04-25 18:52 43.26154 -17.10621 35168 ft 518 kts 87°
2026-04-25 18:53 43.26904 -17.00790 35177 ft 518 kts 87°
2026-04-25 18:53 43.27645 -16.90960 35175 ft 518 kts 87°
2026-04-25 18:54 43.28741 -16.76211 35182 ft 518 kts 87°
2026-04-25 18:55 43.29461 -16.66379 35177 ft 518 kts 88°
2026-04-25 18:55 43.30174 -16.56538 35184 ft 517 kts 88°
2026-04-25 18:56 43.30878 -16.46682 35190 ft 517 kts 88°
2026-04-25 18:56 43.31568 -16.36912 35190 ft 517 kts 88°
2026-04-25 18:57 43.32255 -16.27070 35191 ft 516 kts 88°
2026-04-25 18:57 43.32929 -16.17290 35195 ft 516 kts 88°
2026-04-25 18:58 43.33597 -16.07452 35195 ft 516 kts 88°
2026-04-25 18:58 43.34582 -15.92730 35195 ft 516 kts 88°
2026-04-25 18:59 43.35860 -15.73198 35206 ft 514 kts 88°
2026-04-25 19:00 43.36796 -15.58523 35205 ft 513 kts 88°
2026-04-25 19:01 43.37709 -15.43910 35206 ft 512 kts 88°
2026-04-25 19:01 43.38310 -15.34139 35209 ft 511 kts 88°
2026-04-25 19:02 43.39192 -15.19527 35211 ft 511 kts 88°
2026-04-25 19:03 43.39867 -15.08144 35211 ft 511 kts 88°
2026-04-25 19:03 43.40622 -14.95193 35211 ft 511 kts 88°
2026-04-25 19:04 43.41360 -14.82225 35214 ft 511 kts 88°
2026-04-25 19:05 43.42443 -14.62736 35217 ft 511 kts 88°
2026-04-25 19:06 43.42974 -14.52984 35216 ft 511 kts 88°
2026-04-25 19:06 43.43751 -14.38351 35219 ft 511 kts 88°
2026-04-25 19:07 43.44510 -14.23772 35219 ft 511 kts 88°
2026-04-25 19:08 43.45251 -14.09104 35222 ft 513 kts 88°
2026-04-25 19:09 43.46137 -13.91093 35222 ft 513 kts 88°
2026-04-25 19:10 43.46917 -13.74814 35225 ft 510 kts 88°
2026-04-25 19:10 43.47374 -13.65089 35228 ft 508 kts 85°
2026-04-25 19:11 43.47843 -13.55370 35229 ft 509 kts 88°
2026-04-25 19:11 43.48247 -13.45649 35229 ft 508 kts 89°
2026-04-25 19:12 43.48640 -13.35960 35225 ft 505 kts 89°
2026-04-25 19:12 43.49036 -13.26301 35225 ft 505 kts 88°
2026-04-25 19:13 43.49442 -13.16675 35223 ft 505 kts 88°
2026-04-25 19:13 43.49850 -13.07068 35229 ft 504 kts 88°
2026-04-25 19:14 43.50050 -12.97433 35229 ft 500 kts 93°
2026-04-25 19:14 43.49772 -12.87854 35224 ft 500 kts 95°
2026-04-25 19:15 43.49435 -12.78274 35226 ft 500 kts 94°
2026-04-25 19:15 43.49125 -12.68699 35226 ft 500 kts 94°
2026-04-25 19:16 43.48839 -12.59139 35225 ft 500 kts 94°
2026-04-25 19:16 43.48556 -12.49562 35224 ft 500 kts 94°
2026-04-25 19:17 43.48270 -12.40036 35215 ft 498 kts 94°
2026-04-25 19:17 43.48010 -12.30529 35222 ft 496 kts 94°
2026-04-25 19:18 43.47725 -12.21115 35474 ft 494 kts 94°
2026-04-25 19:18 43.47572 -12.16387 35703 ft 493 kts 94°
2026-04-25 19:18 43.47414 -12.11676 35919 ft 492 kts 94°
2026-04-25 19:18 43.47252 -12.06958 36117 ft 492 kts 94°
2026-04-25 19:19 43.47090 -12.02262 36310 ft 491 kts 94°
2026-04-25 19:19 43.46925 -11.97570 36533 ft 490 kts 94°
2026-04-25 19:19 43.46760 -11.92899 36720 ft 489 kts 94°
2026-04-25 19:19 43.46648 -11.89793 36831 ft 489 kts 94°
2026-04-25 19:20 43.46422 -11.83539 37051 ft 489 kts 94°
2026-04-25 19:20 43.46251 -11.78864 37188 ft 489 kts 94°
2026-04-25 19:20 43.46078 -11.74166 37220 ft 491 kts 94°
2026-04-25 19:21 43.45727 -11.64809 37214 ft 488 kts 94°
2026-04-25 19:21 43.45189 -11.50857 37217 ft 488 kts 94°
2026-04-25 19:22 43.44820 -11.41532 37214 ft 488 kts 94°
2026-04-25 19:23 43.44251 -11.27531 37212 ft 488 kts 95°
2026-04-25 19:23 43.43667 -11.13553 37214 ft 488 kts 95°
2026-04-25 19:24 43.43268 -11.04230 37211 ft 488 kts 95°
2026-04-25 19:25 43.42446 -10.85589 37211 ft 488 kts 95°
2026-04-25 19:25 43.42027 -10.76327 37211 ft 488 kts 95°
2026-04-25 19:26 43.41596 -10.66994 37208 ft 488 kts 95°
2026-04-25 19:26 43.41159 -10.57673 37203 ft 488 kts 95°
2026-04-25 19:27 43.40787 -10.49865 37203 ft 488 kts 95°
2026-04-25 19:27 43.40263 -10.39060 37203 ft 487 kts 95°
2026-04-25 19:28 43.39803 -10.29756 37203 ft 487 kts 95°
2026-04-25 19:28 43.39337 -10.20471 37200 ft 487 kts 95°
2026-04-25 19:29 43.38863 -10.11176 37197 ft 486 kts 95°
2026-04-25 19:29 43.38386 -10.01959 37194 ft 486 kts 95°
2026-04-25 19:30 43.37899 -9.92705 37192 ft 485 kts 95°
2026-04-25 19:30 43.37404 -9.83447 37192 ft 485 kts 95°
2026-04-25 19:31 43.36901 -9.74189 37192 ft 485 kts 95°
2026-04-25 19:31 43.36391 -9.64932 37185 ft 485 kts 95°
2026-04-25 19:32 43.35874 -9.55680 37185 ft 486 kts 95°
2026-04-25 19:32 43.35527 -9.49542 37176 ft 485 kts 95°
2026-04-25 19:33 43.34817 -9.37171 37167 ft 485 kts 95°
2026-04-25 19:33 43.34282 -9.27999 37167 ft 485 kts 95°
2026-04-25 19:34 43.33735 -9.18758 37172 ft 485 kts 95°
2026-04-25 19:34 43.33181 -9.09515 37170 ft 485 kts 95°
2026-04-25 19:35 43.32619 -9.00283 37161 ft 485 kts 95°
2026-04-25 19:35 43.32051 -8.91046 37158 ft 484 kts 95°
2026-04-25 19:36 43.31475 -8.81823 37156 ft 484 kts 95°
2026-04-25 19:36 43.30892 -8.72610 37152 ft 485 kts 95°
2026-04-25 19:37 43.30303 -8.63408 37145 ft 482 kts 95°
2026-04-25 19:37 43.29712 -8.54306 37146 ft 481 kts 95°
2026-04-25 19:38 43.29112 -8.45161 37141 ft 481 kts 95°
2026-04-25 19:38 43.28503 -8.36004 37157 ft 481 kts 95°
2026-04-25 19:39 43.27888 -8.26871 37156 ft 481 kts 95°
2026-04-25 19:39 43.27266 -8.17727 37156 ft 481 kts 95°
2026-04-25 19:40 43.26635 -8.08574 37156 ft 481 kts 95°
2026-04-25 19:40 43.25998 -7.99436 37163 ft 481 kts 95°
2026-04-25 19:41 43.25354 -7.90296 37161 ft 481 kts 95°
2026-04-25 19:41 43.24922 -7.84235 37170 ft 481 kts 95°
2026-04-25 19:42 43.24046 -7.72073 37162 ft 481 kts 95°
2026-04-25 19:42 43.23379 -7.62923 37165 ft 481 kts 95°
2026-04-25 19:43 43.22705 -7.53789 37164 ft 482 kts 95°
2026-04-25 19:43 43.22024 -7.44654 37164 ft 482 kts 95°
2026-04-25 19:44 43.21335 -7.35512 37162 ft 482 kts 95°
2026-04-25 19:44 43.20405 -7.26415 37159 ft 482 kts 99°
2026-04-25 19:45 43.19236 -7.17413 37155 ft 481 kts 98°
2026-04-25 19:45 43.18081 -7.08403 37151 ft 479 kts 98°
2026-04-25 19:46 43.16968 -6.99407 37153 ft 479 kts 98°
2026-04-25 19:46 43.15869 -6.90413 37156 ft 479 kts 98°
2026-04-25 19:47 43.14770 -6.81476 37168 ft 479 kts 98°
2026-04-25 19:47 43.13658 -6.72502 37152 ft 477 kts 98°
2026-04-25 19:48 43.12537 -6.63543 37157 ft 477 kts 98°
2026-04-25 19:48 43.11413 -6.54601 37160 ft 477 kts 98°
2026-04-25 19:49 43.10656 -6.48618 37163 ft 477 kts 98°
2026-04-25 19:49 43.09143 -6.36730 37159 ft 476 kts 98°
2026-04-25 19:50 43.07617 -6.24849 37161 ft 476 kts 98°
2026-04-25 19:51 43.06465 -6.15942 37168 ft 476 kts 98°
2026-04-25 19:51 43.05305 -6.07032 37179 ft 476 kts 98°
2026-04-25 19:52 43.04141 -5.98152 37175 ft 474 kts 98°
2026-04-25 19:52 43.02973 -5.89285 37171 ft 474 kts 98°
2026-04-25 19:53 43.01797 -5.80424 37174 ft 474 kts 98°
2026-04-25 19:53 43.00616 -5.71576 37177 ft 474 kts 98°
2026-04-25 19:54 42.99427 -5.62724 37179 ft 474 kts 99°
2026-04-25 19:54 42.98231 -5.53872 37181 ft 474 kts 99°
2026-04-25 19:55 42.97027 -5.45019 37173 ft 474 kts 99°
2026-04-25 19:55 42.95843 -5.36203 37176 ft 477 kts 98°
2026-04-25 19:56 42.94693 -5.27579 36827 ft 477 kts 99°
2026-04-25 19:56 42.94088 -5.23133 36568 ft 477 kts 99°
2026-04-25 19:56 42.93474 -5.18664 36306 ft 478 kts 99°
2026-04-25 19:56 42.92857 -5.14213 36053 ft 478 kts 99°
2026-04-25 19:57 42.92236 -5.09754 35819 ft 478 kts 99°
2026-04-25 19:57 42.91613 -5.05303 35562 ft 479 kts 99°
2026-04-25 19:57 42.90987 -5.00839 35309 ft 479 kts 99°
2026-04-25 19:57 42.90358 -4.96366 35200 ft 479 kts 99°
2026-04-25 19:58 42.89729 -4.91905 35193 ft 479 kts 100°
2026-04-25 19:58 42.89098 -4.87447 35317 ft 479 kts 100°
2026-04-25 19:58 42.88464 -4.82980 35493 ft 479 kts 100°
2026-04-25 19:58 42.87831 -4.78528 35263 ft 478 kts 100°
2026-04-25 19:59 42.87204 -4.74139 35202 ft 478 kts 100°
2026-04-25 19:59 42.85926 -4.65234 35198 ft 478 kts 100°
2026-04-25 20:00 42.84645 -4.56348 35204 ft 478 kts 100°
2026-04-25 20:00 42.83351 -4.47434 35210 ft 479 kts 101°
2026-04-25 20:01 42.81398 -4.34066 35213 ft 480 kts 101°
2026-04-25 20:01 42.80086 -4.25149 35211 ft 480 kts 101°
2026-04-25 20:02 42.78769 -4.16252 35215 ft 480 kts 101°
2026-04-25 20:02 42.77444 -4.07355 35495 ft 480 kts 101°
2026-04-25 20:03 42.76777 -4.02895 35716 ft 479 kts 101°
2026-04-25 20:03 42.76112 -3.98460 35907 ft 478 kts 101°
2026-04-25 20:03 42.75454 -3.94084 36089 ft 478 kts 101°
2026-04-25 20:03 42.74786 -3.89659 36277 ft 478 kts 101°
2026-04-25 20:04 42.74116 -3.85231 36444 ft 478 kts 101°
2026-04-25 20:04 42.73436 -3.80749 36620 ft 477 kts 101°
2026-04-25 20:04 42.72763 -3.76326 36744 ft 478 kts 101°
2026-04-25 20:04 42.72096 -3.71954 36898 ft 479 kts 101°
2026-04-25 20:05 42.71419 -3.67522 37087 ft 478 kts 101°
2026-04-25 20:05 42.70757 -3.63206 37203 ft 479 kts 101°
2026-04-25 20:05 42.69373 -3.54213 37206 ft 477 kts 101°
2026-04-25 20:06 42.68008 -3.45396 37210 ft 476 kts 101°
2026-04-25 20:06 42.66638 -3.36589 37211 ft 478 kts 102°
2026-04-25 20:07 42.65255 -3.27745 37209 ft 479 kts 102°
2026-04-25 20:07 42.63866 -3.18908 37203 ft 479 kts 102°
2026-04-25 20:08 42.62478 -3.10122 37203 ft 479 kts 102°
2026-04-25 20:08 42.61072 -3.01273 37203 ft 479 kts 102°
2026-04-25 20:09 42.59661 -2.92441 37203 ft 480 kts 102°
2026-04-25 20:09 42.58240 -2.83589 37203 ft 480 kts 102°
2026-04-25 20:10 42.56814 -2.74750 37191 ft 479 kts 102°
2026-04-25 20:10 42.55381 -2.65921 37182 ft 479 kts 102°
2026-04-25 20:11 42.53965 -2.57224 37171 ft 479 kts 102°
2026-04-25 20:11 42.52549 -2.48577 37163 ft 480 kts 103°
2026-04-25 20:12 42.51076 -2.39811 37157 ft 479 kts 102°
2026-04-25 20:12 42.50107 -2.33911 37157 ft 479 kts 102°
2026-04-25 20:13 42.48170 -2.22175 37157 ft 480 kts 102°
2026-04-25 20:13 42.46695 -2.13341 37159 ft 481 kts 102°
2026-04-25 20:14 42.45211 -2.04513 37161 ft 480 kts 102°
2026-04-25 20:14 42.43722 -1.95704 37159 ft 480 kts 102°
2026-04-25 20:15 42.42264 -1.86881 37158 ft 480 kts 100°
2026-04-25 20:15 42.41160 -1.77965 37151 ft 480 kts 98°
2026-04-25 20:16 42.40143 -1.69041 37151 ft 480 kts 98°
2026-04-25 20:16 42.39069 -1.60117 37141 ft 480 kts 99°
2026-04-25 20:17 42.37953 -1.51231 37137 ft 478 kts 99°
2026-04-25 20:17 42.36835 -1.42458 37138 ft 475 kts 99°
2026-04-25 20:18 42.35701 -1.33616 37127 ft 474 kts 99°
2026-04-25 20:18 42.34576 -1.24882 37127 ft 474 kts 99°
2026-04-25 20:19 42.33439 -1.16101 37124 ft 474 kts 99°
2026-04-25 20:19 42.32295 -1.07320 37123 ft 472 kts 100°
2026-04-25 20:20 42.31151 -0.98595 37124 ft 471 kts 100°
2026-04-25 20:20 42.30001 -0.89885 37127 ft 471 kts 100°
2026-04-25 20:21 42.28844 -0.81172 37127 ft 471 kts 100°
2026-04-25 20:21 42.27689 -0.72524 37121 ft 470 kts 100°
2026-04-25 20:22 42.26909 -0.66709 37121 ft 470 kts 100°
2026-04-25 20:22 42.25351 -0.55166 37124 ft 470 kts 100°
2026-04-25 20:23 42.24171 -0.46486 37127 ft 469 kts 100°
2026-04-25 20:23 42.22986 -0.37827 37132 ft 469 kts 101°
2026-04-25 20:24 42.21796 -0.29171 37134 ft 469 kts 101°
2026-04-25 20:24 42.20994 -0.20428 37215 ft 470 kts 94°
2026-04-25 20:25 42.20774 -0.16016 37344 ft 471 kts 93°
2026-04-25 20:25 42.20584 -0.11666 37522 ft 470 kts 93°
2026-04-25 20:25 42.20405 -0.07274 37707 ft 469 kts 93°
2026-04-25 20:25 42.20229 -0.02876 37891 ft 468 kts 93°
2026-04-25 20:26 42.20051 0.01499 38059 ft 468 kts 93°
2026-04-25 20:26 42.19868 0.05899 38098 ft 470 kts 93°
2026-04-25 20:26 42.19487 0.14735 38131 ft 470 kts 93°
2026-04-25 20:27 42.19100 0.23500 38124 ft 466 kts 93°
2026-04-25 20:27 42.18707 0.32218 38138 ft 466 kts 93°
2026-04-25 20:28 42.18309 0.40901 38142 ft 466 kts 94°
2026-04-25 20:28 42.17902 0.49650 38133 ft 468 kts 94°
2026-04-25 20:29 42.17488 0.58425 38136 ft 468 kts 94°
2026-04-25 20:29 42.17067 0.67183 38154 ft 468 kts 94°
2026-04-25 20:30 42.16640 0.75940 38157 ft 468 kts 94°
2026-04-25 20:30 42.16205 0.84715 38158 ft 470 kts 94°
2026-04-25 20:31 42.15761 0.93517 38169 ft 471 kts 94°
2026-04-25 20:31 42.15311 1.02327 38140 ft 471 kts 94°
2026-04-25 20:32 42.14855 1.11133 38135 ft 471 kts 94°
2026-04-25 20:32 42.14390 1.19950 38145 ft 472 kts 94°
2026-04-25 20:33 42.13918 1.28786 38137 ft 474 kts 94°
2026-04-25 20:33 42.13597 1.34710 38139 ft 474 kts 94°
2026-04-25 20:34 42.12778 1.46487 38149 ft 474 kts 96°
2026-04-25 20:34 42.12115 1.55312 38154 ft 474 kts 95°
2026-04-25 20:35 42.11464 1.64139 38150 ft 473 kts 95°
2026-04-25 20:35 42.10820 1.72942 38163 ft 472 kts 95°
2026-04-25 20:36 42.10283 1.80258 38164 ft 472 kts 95°
2026-04-25 20:36 42.09630 1.89061 38138 ft 472 kts 95°
2026-04-25 20:37 42.08968 1.97868 38156 ft 472 kts 95°
2026-04-25 20:37 42.08300 2.06669 38149 ft 473 kts 95°
2026-04-25 20:38 42.07625 2.15461 38140 ft 473 kts 95°
2026-04-25 20:38 42.06943 2.24266 38136 ft 473 kts 95°
2026-04-25 20:39 42.06259 2.33009 38117 ft 473 kts 95°
2026-04-25 20:39 42.05677 2.40375 38119 ft 473 kts 95°
2026-04-25 20:40 42.04862 2.50593 38116 ft 473 kts 96°
2026-04-25 20:40 42.04153 2.59387 38099 ft 473 kts 96°
2026-04-25 20:41 42.03437 2.68183 38106 ft 473 kts 96°
2026-04-25 20:41 42.02716 2.76967 38107 ft 473 kts 96°
2026-04-25 20:42 42.01988 2.85747 38093 ft 472 kts 96°
2026-04-25 20:42 42.01253 2.94518 38091 ft 472 kts 96°
2026-04-25 20:43 42.00510 3.03302 38087 ft 472 kts 96°
2026-04-25 20:43 41.99762 3.12071 38097 ft 473 kts 96°
2026-04-25 20:44 41.99006 3.20863 38100 ft 473 kts 96°
2026-04-25 20:44 41.98243 3.29647 38103 ft 473 kts 96°
2026-04-25 20:45 41.97473 3.38431 38108 ft 473 kts 96°
2026-04-25 20:45 41.96696 3.47216 38097 ft 473 kts 96°
2026-04-25 20:46 41.95913 3.55995 38119 ft 473 kts 96°
2026-04-25 20:46 41.95124 3.64771 38108 ft 473 kts 96°
2026-04-25 20:47 41.94327 3.73544 38122 ft 473 kts 96°
2026-04-25 20:47 41.93524 3.82318 38118 ft 473 kts 96°
2026-04-25 20:48 41.93122 3.91130 38114 ft 473 kts 84°
2026-04-25 20:48 41.94601 3.99704 38134 ft 472 kts 67°
2026-04-25 20:49 41.97118 4.07816 38123 ft 474 kts 64°
2026-04-25 20:49 41.99803 4.15921 38111 ft 475 kts 64°
2026-04-25 20:50 42.02480 4.24057 38126 ft 475 kts 64°
2026-04-25 20:50 42.05117 4.32198 38124 ft 474 kts 65°
2026-04-25 20:51 42.07931 4.40218 38125 ft 472 kts 57°
2026-04-25 20:51 42.11305 4.47754 38110 ft 473 kts 56°
2026-04-25 20:52 42.14192 4.54100 38127 ft 474 kts 56°
2026-04-25 20:52 42.16398 4.58943 37873 ft 474 kts 56°